Time,TemperatureF,DewpointF,PressureIn,WindDirection,WindDirectionDegrees,WindSpeedMPH,WindSpeedGustMPH,Humidity,HourlyPrecipIn,Conditions,Clouds,dailyrainin,SoftwareType,DateUTC
2013-02-19 00:05:00,59.7,56.1,30.00,WNW,284,3.0,22.0,88,0.00,,,0.00,Wunderground v.1.15,2013-02-19 06:05:00,
2013-02-19 00:10:00,59.6,55.7,30.00,WNW,297,3.0,5.0,87,0.00,,,0.00,Wunderground v.1.15,2013-02-19 06:10:00,
2013-02-19 00:15:00,59.3,55.1,29.99,WNW,285,3.0,9.0,86,0.00,,,0.00,Wunderground v.1.15,2013-02-19 06:15:00,
2013-02-19 00:20:00,59.0,54.5,29.99,NW,323,4.0,4.0,85,0.00,,,0.00,Wunderground v.1.15,2013-02-19 06:20:00,
2013-02-19 00:26:00,58.8,53.6,30.00,WNW,285,4.0,14.0,83,0.00,,,0.00,Wunderground v.1.15,2013-02-19 06:26:00,
2013-02-19 00:31:00,58.6,53.1,30.00,NNW,336,5.0,8.0,82,0.00,,,0.00,Wunderground v.1.15,2013-02-19 06:31:00,
2013-02-19 00:36:00,58.4,52.9,30.00,West,259,4.0,10.0,82,0.00,,,0.00,Wunderground v.1.15,2013-02-19 06:36:00,
2013-02-19 00:42:00,58.2,52.1,30.01,NW,309,4.0,10.0,80,0.00,,,0.00,Wunderground v.1.15,2013-02-19 06:42:00,
2013-02-19 00:47:00,58.0,51.2,30.01,NNE,27,5.0,7.0,78,0.00,,,0.00,Wunderground v.1.15,2013-02-19 06:47:00,
2013-02-19 00:53:00,57.8,50.6,30.01,NW,320,5.0,10.0,77,0.00,,,0.00,Wunderground v.1.15,2013-02-19 06:53:00,
2013-02-19 00:58:00,57.3,50.5,30.02,NW,312,4.0,7.0,78,0.00,,,0.00,Wunderground v.1.15,2013-02-19 06:58:00,
2013-02-19 01:03:00,56.9,49.8,30.03,NW,312,4.0,7.0,77,0.00,,,0.00,Wunderground v.1.15,2013-02-19 07:03:00,
2013-02-19 01:08:00,56.6,49.5,30.03,WNW,299,5.0,7.0,77,0.00,,,0.00,Wunderground v.1.15,2013-02-19 07:08:00,
2013-02-19 01:14:00,56.3,49.2,30.03,North,1,5.0,11.0,77,0.00,,,0.00,Wunderground v.1.15,2013-02-19 07:14:00,
2013-02-19 01:20:00,55.8,49.0,30.03,NW,311,3.0,7.0,78,0.00,,,0.00,Wunderground v.1.15,2013-02-19 07:20:00,
2013-02-19 01:25:00,55.4,49.0,30.04,West,280,3.0,7.0,79,0.00,,,0.00,Wunderground v.1.15,2013-02-19 07:25:00,
2013-02-19 01:31:00,54.9,48.5,30.04,ENE,75,3.0,8.0,79,0.00,,,0.00,Wunderground v.1.15,2013-02-19 07:31:00,
2013-02-19 01:36:00,54.7,48.3,30.04,WSW,238,2.0,8.0,79,0.00,,,0.00,Wunderground v.1.15,2013-02-19 07:36:00,
2013-02-19 01:41:00,54.5,48.5,30.05,WNW,291,3.0,7.0,80,0.00,,,0.00,Wunderground v.1.15,2013-02-19 07:41:00,
2013-02-19 01:47:00,54.2,48.2,30.05,West,266,2.0,7.0,80,0.00,,,0.00,Wunderground v.1.15,2013-02-19 07:47:00,
2013-02-19 01:52:00,54.0,48.0,30.05,NNW,338,2.0,7.0,80,0.00,,,0.00,Wunderground v.1.15,2013-02-19 07:52:00,
2013-02-19 01:57:00,53.8,48.1,30.06,WNW,285,2.0,7.0,81,0.00,,,0.00,Wunderground v.1.15,2013-02-19 07:57:00,
2013-02-19 02:03:00,53.6,47.9,30.06,NW,314,2.0,7.0,81,0.00,,,0.00,Wunderground v.1.15,2013-02-19 08:03:00,
2013-02-19 02:08:00,53.5,47.8,30.07,WNW,283,2.0,6.0,81,0.00,,,0.00,Wunderground v.1.15,2013-02-19 08:08:00,
2013-02-19 02:13:00,53.3,47.6,30.07,NW,314,2.0,7.0,81,0.00,,,0.00,Wunderground v.1.15,2013-02-19 08:13:00,
2013-02-19 02:18:00,53.1,47.7,30.07,WNW,290,2.0,7.0,82,0.00,,,0.00,Wunderground v.1.15,2013-02-19 08:18:00,
2013-02-19 02:24:00,52.8,47.8,30.07,West,278,2.0,7.0,83,0.00,,,0.00,Wunderground v.1.15,2013-02-19 08:24:00,
2013-02-19 02:30:00,52.6,47.6,30.08,NNW,333,2.0,7.0,83,0.00,,,0.00,Wunderground v.1.15,2013-02-19 08:30:00,
2013-02-19 02:35:00,52.2,47.5,30.08,NW,324,2.0,7.0,84,0.00,,,0.00,Wunderground v.1.15,2013-02-19 08:35:00,
2013-02-19 02:41:00,52.0,47.3,30.08,WNW,300,1.0,7.0,84,0.00,,,0.00,Wunderground v.1.15,2013-02-19 08:41:00,
2013-02-19 02:46:00,51.9,47.2,30.08,NNW,347,1.0,7.0,84,0.00,,,0.00,Wunderground v.1.15,2013-02-19 08:46:00,
2013-02-19 02:51:00,51.7,47.0,30.09,West,278,1.0,7.0,84,0.00,,,0.00,Wunderground v.1.15,2013-02-19 08:51:00,
2013-02-19 02:57:00,51.4,47.0,30.09,WNW,300,1.0,7.0,85,0.00,,,0.00,Wunderground v.1.15,2013-02-19 08:57:00,
2013-02-19 03:02:00,51.3,46.9,30.09,NW,312,1.0,7.0,85,0.00,,,0.00,Wunderground v.1.15,2013-02-19 09:02:00,
2013-02-19 03:07:00,50.9,46.6,30.09,WNW,300,1.0,7.0,85,0.00,,,0.00,Wunderground v.1.15,2013-02-19 09:07:00,
2013-02-19 03:13:00,50.8,46.5,30.10,WNW,285,1.0,7.0,85,0.00,,,0.00,Wunderground v.1.15,2013-02-19 09:13:00,
2013-02-19 03:18:00,50.6,46.3,30.10,NW,307,1.0,7.0,85,0.00,,,0.00,Wunderground v.1.15,2013-02-19 09:18:00,
2013-02-19 03:23:00,50.4,46.4,30.10,WNW,287,1.0,7.0,86,0.00,,,0.00,Wunderground v.1.15,2013-02-19 09:23:00,
2013-02-19 03:29:00,50.2,46.2,30.10,WNW,287,1.0,7.0,86,0.00,,,0.00,Wunderground v.1.15,2013-02-19 09:29:00,
2013-02-19 03:35:00,49.9,45.9,30.10,WNW,284,1.0,7.0,86,0.00,,,0.00,Wunderground v.1.15,2013-02-19 09:35:00,
2013-02-19 03:40:00,49.7,45.7,30.10,WNW,284,1.0,7.0,86,0.00,,,0.00,Wunderground v.1.15,2013-02-19 09:40:00,
2013-02-19 03:45:00,49.5,45.5,30.10,WNW,285,0.0,7.0,86,0.00,,,0.00,Wunderground v.1.15,2013-02-19 09:45:00,
2013-02-19 03:51:00,49.4,45.4,30.10,NW,323,1.0,7.0,86,0.00,,,0.00,Wunderground v.1.15,2013-02-19 09:51:00,
2013-02-19 03:57:00,49.2,45.2,30.11,NNW,330,1.0,1.0,86,0.00,,,0.00,Wunderground v.1.15,2013-02-19 09:57:00,
2013-02-19 04:02:00,49.0,45.0,30.11,WNW,293,1.0,7.0,86,0.00,,,0.00,Wunderground v.1.15,2013-02-19 10:02:00,
2013-02-19 04:07:00,48.8,45.1,30.11,NNW,328,0.0,7.0,87,0.00,,,0.00,Wunderground v.1.15,2013-02-19 10:07:00,
2013-02-19 04:13:00,48.5,44.8,30.11,NW,311,0.0,7.0,87,0.00,,,0.00,Wunderground v.1.15,2013-02-19 10:13:00,
2013-02-19 04:19:00,48.3,44.9,30.11,WNW,295,0.0,7.0,88,0.00,,,0.00,Wunderground v.1.15,2013-02-19 10:19:00,
2013-02-19 04:25:00,48.2,44.8,30.12,WNW,285,1.0,7.0,88,0.00,,,0.00,Wunderground v.1.15,2013-02-19 10:25:00,
2013-02-19 04:30:00,48.1,44.7,30.12,West,280,1.0,7.0,88,0.00,,,0.00,Wunderground v.1.15,2013-02-19 10:30:00,
2013-02-19 04:36:00,47.9,44.5,30.12,NW,304,1.0,7.0,88,0.00,,,0.00,Wunderground v.1.15,2013-02-19 10:36:00,
2013-02-19 04:41:00,47.6,44.5,30.12,WNW,300,0.0,7.0,89,0.00,,,0.00,Wunderground v.1.15,2013-02-19 10:41:00,
2013-02-19 04:46:00,47.3,44.2,30.13,NW,314,0.0,7.0,89,0.00,,,0.00,Wunderground v.1.15,2013-02-19 10:46:00,
2013-02-19 04:51:00,47.1,44.3,30.13,WNW,302,0.0,7.0,90,0.00,,,0.00,Wunderground v.1.15,2013-02-19 10:51:00,
2013-02-19 04:57:00,47.1,44.3,30.13,NNW,332,1.0,7.0,90,0.00,,,0.00,Wunderground v.1.15,2013-02-19 10:57:00,
2013-02-19 05:02:00,47.2,44.1,30.14,WNW,284,1.0,7.0,89,0.00,,,0.00,Wunderground v.1.15,2013-02-19 11:02:00,
2013-02-19 05:07:00,47.2,44.1,30.14,WNW,299,1.0,7.0,89,0.00,,,0.00,Wunderground v.1.15,2013-02-19 11:07:00,
2013-02-19 05:13:00,47.2,43.8,30.14,North,8,1.0,7.0,88,0.00,,,0.00,Wunderground v.1.15,2013-02-19 11:13:00,
2013-02-19 05:18:00,47.1,43.4,30.15,West,270,1.0,7.0,87,0.00,,,0.00,Wunderground v.1.15,2013-02-19 11:18:00,
2013-02-19 05:23:00,47.1,43.4,30.15,NNW,330,1.0,7.0,87,0.00,,,0.00,Wunderground v.1.15,2013-02-19 11:23:00,
2013-02-19 05:29:00,47.1,43.1,30.16,NW,326,1.0,7.0,86,0.00,,,0.00,Wunderground v.1.15,2013-02-19 11:29:00,
2013-02-19 05:35:00,47.1,42.8,30.16,NW,324,1.0,7.0,85,0.00,,,0.00,Wunderground v.1.15,2013-02-19 11:35:00,
2013-02-19 05:40:00,46.9,42.6,30.17,NNW,345,0.0,7.0,85,0.00,,,0.00,Wunderground v.1.15,2013-02-19 11:40:00,
2013-02-19 05:45:00,46.8,42.2,30.17,WNW,288,1.0,7.0,84,0.00,,,0.00,Wunderground v.1.15,2013-02-19 11:45:00,
2013-02-19 05:50:00,46.7,42.1,30.17,NNW,336,1.0,7.0,84,0.00,,,0.00,Wunderground v.1.15,2013-02-19 11:50:00,
2013-02-19 05:56:00,46.5,41.9,30.17,NW,324,1.0,7.0,84,0.00,,,0.00,Wunderground v.1.15,2013-02-19 11:56:00,
2013-02-19 06:01:00,46.3,41.7,30.17,WNW,302,1.0,7.0,84,0.00,,,0.00,Wunderground v.1.15,2013-02-19 12:01:00,
2013-02-19 06:06:00,45.9,41.3,30.17,WNW,302,0.0,7.0,84,0.00,,,0.00,Wunderground v.1.15,2013-02-19 12:06:00,
2013-02-19 06:11:00,45.7,41.4,30.17,West,278,0.0,7.0,85,0.00,,,0.00,Wunderground v.1.15,2013-02-19 12:11:00,
2013-02-19 06:17:00,45.5,41.3,30.17,ENE,65,0.0,7.0,85,0.00,,,0.00,Wunderground v.1.15,2013-02-19 12:17:00,
2013-02-19 06:23:00,45.3,41.1,30.18,West,278,0.0,7.0,85,0.00,,,0.00,Wunderground v.1.15,2013-02-19 12:23:00,
2013-02-19 06:28:00,45.0,40.8,30.18,West,278,0.0,7.0,85,0.00,,,0.00,Wunderground v.1.15,2013-02-19 12:28:00,
2013-02-19 06:34:00,44.8,40.9,30.19,West,278,0.0,7.0,86,0.00,,,0.00,Wunderground v.1.15,2013-02-19 12:34:00,
2013-02-19 06:40:00,44.5,40.6,30.19,West,278,0.0,7.0,86,0.00,,,0.00,Wunderground v.1.15,2013-02-19 12:40:00,
2013-02-19 06:45:00,44.2,40.3,30.19,West,278,0.0,7.0,86,0.00,,,0.00,Wunderground v.1.15,2013-02-19 12:45:00,
2013-02-19 06:50:00,43.9,40.3,30.19,West,278,0.0,7.0,87,0.00,,,0.00,Wunderground v.1.15,2013-02-19 12:50:00,
2013-02-19 06:55:00,43.8,40.5,30.19,West,278,0.0,7.0,88,0.00,,,0.00,Wunderground v.1.15,2013-02-19 12:55:00,
2013-02-19 07:01:00,43.8,40.5,30.20,West,278,0.0,7.0,88,0.00,,,0.00,Wunderground v.1.15,2013-02-19 13:01:00,
2013-02-19 07:06:00,44.1,40.8,30.20,West,278,0.0,7.0,88,0.00,,,0.00,Wunderground v.1.15,2013-02-19 13:06:00,
2013-02-19 07:11:00,44.4,41.1,30.20,West,278,0.0,7.0,88,0.00,,,0.00,Wunderground v.1.15,2013-02-19 13:11:00,
2013-02-19 07:17:00,44.9,41.6,30.21,NW,311,0.0,7.0,88,0.00,,,0.00,Wunderground v.1.15,2013-02-19 13:17:00,
2013-02-19 07:22:00,45.2,41.6,30.21,WNW,289,0.0,7.0,87,0.00,,,0.00,Wunderground v.1.15,2013-02-19 13:22:00,
2013-02-19 07:27:00,45.6,42.0,30.21,NW,316,0.0,7.0,87,0.00,,,0.00,Wunderground v.1.15,2013-02-19 13:27:00,
2013-02-19 07:33:00,46.2,42.5,30.21,NW,316,0.0,7.0,87,0.00,,,0.00,Wunderground v.1.15,2013-02-19 13:33:00,
2013-02-19 07:38:00,46.5,42.2,30.22,West,280,0.0,7.0,85,0.00,,,0.00,Wunderground v.1.15,2013-02-19 13:38:00,
2013-02-19 07:43:00,46.9,42.3,30.23,North,4,1.0,7.0,84,0.00,,,0.00,Wunderground v.1.15,2013-02-19 13:43:00,
2013-02-19 07:48:00,47.4,42.2,30.23,NW,321,1.0,7.0,82,0.00,,,0.00,Wunderground v.1.15,2013-02-19 13:48:00,
2013-02-19 07:54:00,47.9,42.0,30.23,NW,323,1.0,7.0,80,0.00,,,0.00,Wunderground v.1.15,2013-02-19 13:54:00,
2013-02-19 08:00:00,48.1,41.2,30.23,North,354,2.0,7.0,77,0.00,,,0.00,Wunderground v.1.15,2013-02-19 14:00:00,
2013-02-19 08:05:00,48.3,41.1,30.24,NNE,18,3.0,7.0,76,0.00,,,0.00,Wunderground v.1.15,2013-02-19 14:05:00,
2013-02-19 08:10:00,48.4,40.8,30.24,ENE,63,2.0,7.0,75,0.00,,,0.00,Wunderground v.1.15,2013-02-19 14:10:00,
2013-02-19 08:15:00,48.8,41.2,30.24,NW,307,2.0,7.0,75,0.00,,,0.00,Wunderground v.1.15,2013-02-19 14:15:00,
2013-02-19 08:21:00,49.1,41.5,30.25,NE,52,2.0,7.0,75,0.00,,,0.00,Wunderground v.1.15,2013-02-19 14:21:00,
2013-02-19 08:26:00,49.3,41.4,30.25,SSE,162,2.0,2.0,74,0.00,,,0.00,Wunderground v.1.15,2013-02-19 14:26:00,
2013-02-19 08:31:00,49.6,40.9,30.25,ENE,58,2.0,10.0,72,0.00,,,0.00,Wunderground v.1.15,2013-02-19 14:31:00,
2013-02-19 08:37:00,49.4,40.4,30.25,NNE,23,3.0,3.0,71,0.00,,,0.00,Wunderground v.1.15,2013-02-19 14:37:00,
2013-02-19 08:42:00,49.3,39.6,30.25,NNE,32,5.0,15.0,69,0.00,,,0.00,Wunderground v.1.15,2013-02-19 14:42:00,
2013-02-19 08:47:00,49.6,41.3,30.26,ENE,74,5.0,7.0,73,0.00,,,0.00,Wunderground v.1.15,2013-02-19 14:47:00,
2013-02-19 08:53:00,49.9,40.1,30.26,NNE,18,3.0,9.0,69,0.00,,,0.00,Wunderground v.1.15,2013-02-19 14:53:00,
2013-02-19 08:58:00,49.9,40.1,30.26,North,8,4.0,7.0,69,0.00,,,0.00,Wunderground v.1.15,2013-02-19 14:58:00,
2013-02-19 09:03:00,50.3,40.5,30.26,NE,54,3.0,7.0,69,0.00,,,0.00,Wunderground v.1.15,2013-02-19 15:03:00,
2013-02-19 09:08:00,50.5,41.1,30.26,North,354,2.0,7.0,70,0.00,,,0.00,Wunderground v.1.15,2013-02-19 15:08:00,
2013-02-19 09:14:00,50.7,40.5,30.26,NNW,347,2.0,7.0,68,0.00,,,0.00,Wunderground v.1.15,2013-02-19 15:14:00,
2013-02-19 09:19:00,50.8,41.4,30.26,NNE,33,3.0,7.0,70,0.00,,,0.00,Wunderground v.1.15,2013-02-19 15:19:00,
2013-02-19 09:25:00,51.2,41.7,30.26,SW,214,3.0,7.0,70,0.00,,,0.00,Wunderground v.1.15,2013-02-19 15:25:00,
2013-02-19 09:30:00,51.6,41.4,30.27,NNW,344,3.0,7.0,68,0.00,,,0.00,Wunderground v.1.15,2013-02-19 15:30:00,
2013-02-19 09:35:00,51.7,41.1,30.27,North,1,3.0,7.0,67,0.00,,,0.00,Wunderground v.1.15,2013-02-19 15:35:00,
2013-02-19 09:40:00,51.4,40.8,30.26,North,352,4.0,7.0,67,0.00,,,0.00,Wunderground v.1.15,2013-02-19 15:40:00,
2013-02-19 09:46:00,51.6,41.0,30.27,NNE,30,3.0,7.0,67,0.00,,,0.00,Wunderground v.1.15,2013-02-19 15:46:00,
2013-02-19 09:51:00,52.0,41.8,30.27,NE,49,2.0,7.0,68,0.00,,,0.00,Wunderground v.1.15,2013-02-19 15:51:00,
2013-02-19 09:56:00,52.0,41.4,30.28,ENE,57,3.0,7.0,67,0.00,,,0.00,Wunderground v.1.15,2013-02-19 15:56:00,
2013-02-19 10:02:00,52.2,41.2,30.28,NNW,340,4.0,7.0,66,0.00,,,0.00,Wunderground v.1.15,2013-02-19 16:02:00,
2013-02-19 10:07:00,52.3,40.9,30.28,WNW,285,4.0,7.0,65,0.00,,,0.00,Wunderground v.1.15,2013-02-19 16:07:00,
2013-02-19 10:12:00,52.8,42.1,30.29,SSW,203,4.0,7.0,67,0.00,,,0.00,Wunderground v.1.15,2013-02-19 16:12:00,
2013-02-19 10:17:00,53.3,41.8,30.29,NE,56,3.0,7.0,65,0.00,,,0.00,Wunderground v.1.15,2013-02-19 16:17:00,
2013-02-19 10:23:00,53.3,41.8,30.29,ENE,63,4.0,7.0,65,0.00,,,0.00,Wunderground v.1.15,2013-02-19 16:23:00,
2013-02-19 10:28:00,54.0,43.3,30.29,NE,50,4.0,7.0,67,0.00,,,0.00,Wunderground v.1.15,2013-02-19 16:28:00,
2013-02-19 10:33:00,54.0,41.3,30.29,East,82,4.0,8.0,62,0.00,,,0.00,Wunderground v.1.15,2013-02-19 16:33:00,
2013-02-19 10:39:00,54.3,41.6,30.29,NE,49,4.0,7.0,62,0.00,,,0.00,Wunderground v.1.15,2013-02-19 16:39:00,
2013-02-19 10:45:00,55.1,42.3,30.30,North,356,3.0,7.0,62,0.00,,,0.00,Wunderground v.1.15,2013-02-19 16:45:00,
2013-02-19 10:50:00,55.4,41.7,30.30,ENE,58,3.0,10.0,60,0.00,,,0.00,Wunderground v.1.15,2013-02-19 16:50:00,
2013-02-19 10:56:00,55.5,41.0,30.29,NW,319,3.0,10.0,58,0.00,,,0.00,Wunderground v.1.15,2013-02-19 16:56:00,
2013-02-19 11:01:00,55.8,43.4,30.29,North,4,3.0,8.0,63,0.00,,,0.00,Wunderground v.1.15,2013-02-19 17:01:00,
2013-02-19 11:07:00,55.9,40.9,30.29,NE,49,3.0,7.0,57,0.00,,,0.00,Wunderground v.1.15,2013-02-19 17:07:00,
2013-02-19 11:13:00,56.1,41.5,30.29,NE,35,3.0,7.0,58,0.00,,,0.00,Wunderground v.1.15,2013-02-19 17:13:00,
2013-02-19 11:18:00,56.4,41.3,30.29,North,10,3.0,7.0,57,0.00,,,0.00,Wunderground v.1.15,2013-02-19 17:18:00,
2013-02-19 11:23:00,56.4,40.4,30.29,ENE,61,3.0,7.0,55,0.00,,,0.00,Wunderground v.1.15,2013-02-19 17:23:00,
2013-02-19 11:29:00,56.7,41.6,30.28,NE,51,3.0,7.0,57,0.00,,,0.00,Wunderground v.1.15,2013-02-19 17:29:00,
2013-02-19 11:35:00,57.1,42.0,30.28,ENE,68,3.0,7.0,57,0.00,,,0.00,Wunderground v.1.15,2013-02-19 17:35:00,
2013-02-19 11:41:00,57.4,41.8,30.28,ENE,63,3.0,7.0,56,0.00,,,0.00,Wunderground v.1.15,2013-02-19 17:41:00,
2013-02-19 11:46:00,57.2,40.2,30.28,East,80,4.0,7.0,53,0.00,,,0.00,Wunderground v.1.15,2013-02-19 17:46:00,
2013-02-19 11:51:00,57.4,40.4,30.28,ENE,62,3.0,7.0,53,0.00,,,0.00,Wunderground v.1.15,2013-02-19 17:51:00,
2013-02-19 11:56:00,57.5,39.5,30.27,NE,47,4.0,7.0,51,0.00,,,0.00,Wunderground v.1.15,2013-02-19 17:56:00,
2013-02-19 12:02:00,57.5,40.0,30.27,ENE,72,5.0,7.0,52,0.00,,,0.00,Wunderground v.1.15,2013-02-19 18:02:00,
2013-02-19 12:08:00,57.5,40.0,30.27,ENE,71,5.0,9.0,52,0.00,,,0.00,Wunderground v.1.15,2013-02-19 18:08:00,
2013-02-19 12:13:00,57.4,38.9,30.27,ENE,63,6.0,9.0,50,0.00,,,0.00,Wunderground v.1.15,2013-02-19 18:13:00,
2013-02-19 12:18:00,58.2,37.5,30.27,ENE,58,5.0,6.0,46,0.00,,,0.00,Wunderground v.1.15,2013-02-19 18:18:00,
2013-02-19 12:23:00,58.8,37.5,30.26,ENE,71,4.0,12.0,45,0.00,,,0.00,Wunderground v.1.15,2013-02-19 18:23:00,
2013-02-19 12:29:00,59.4,38.0,30.26,NE,56,4.0,5.0,45,0.00,,,0.00,Wunderground v.1.15,2013-02-19 18:29:00,
2013-02-19 12:34:00,59.3,36.8,30.26,NNE,30,5.0,10.0,43,0.00,,,0.00,Wunderground v.1.15,2013-02-19 18:34:00,
2013-02-19 12:40:00,59.4,36.3,30.26,ENE,71,4.0,5.0,42,0.00,,,0.00,Wunderground v.1.15,2013-02-19 18:40:00,
2013-02-19 12:45:00,59.5,37.6,30.26,NE,47,4.0,10.0,44,0.00,,,0.00,Wunderground v.1.15,2013-02-19 18:45:00,
2013-02-19 12:50:00,59.4,36.9,30.26,ENE,64,4.0,6.0,43,0.00,,,0.00,Wunderground v.1.15,2013-02-19 18:50:00,
2013-02-19 12:56:00,59.8,38.4,30.26,NW,316,4.0,6.0,45,0.00,,,0.00,Wunderground v.1.15,2013-02-19 18:56:00,
2013-02-19 13:02:00,59.9,37.9,30.25,NW,311,4.0,7.0,44,0.00,,,0.00,Wunderground v.1.15,2013-02-19 19:02:00,
2013-02-19 13:07:00,60.5,37.9,30.26,NW,326,3.0,7.0,43,0.00,,,0.00,Wunderground v.1.15,2013-02-19 19:07:00,
2013-02-19 13:12:00,60.9,36.4,30.26,NNW,340,3.0,7.0,40,0.00,,,0.00,Wunderground v.1.15,2013-02-19 19:12:00,
2013-02-19 13:18:00,60.9,37.0,30.26,NNW,343,3.0,7.0,41,0.00,,,0.00,Wunderground v.1.15,2013-02-19 19:18:00,
2013-02-19 13:24:00,61.7,37.1,30.25,NNE,14,2.0,7.0,40,0.00,,,0.00,Wunderground v.1.15,2013-02-19 19:24:00,
2013-02-19 13:30:00,61.7,36.5,30.25,WNW,300,3.0,7.0,39,0.00,,,0.00,Wunderground v.1.15,2013-02-19 19:30:00,
2013-02-19 13:36:00,61.6,36.4,30.26,ENE,75,4.0,7.0,39,0.00,,,0.00,Wunderground v.1.15,2013-02-19 19:36:00,
2013-02-19 13:41:00,61.0,37.7,30.25,NNE,32,5.0,10.0,42,0.00,,,0.00,Wunderground v.1.15,2013-02-19 19:41:00,
2013-02-19 13:46:00,61.8,39.1,30.25,North,359,4.0,4.0,43,0.00,,,0.00,Wunderground v.1.15,2013-02-19 19:46:00,
2013-02-19 13:52:00,61.6,36.4,30.25,ENE,61,3.0,7.0,39,0.00,,,0.00,Wunderground v.1.15,2013-02-19 19:52:00,
2013-02-19 13:57:00,61.6,36.4,30.24,NNE,19,4.0,7.0,39,0.00,,,0.00,Wunderground v.1.15,2013-02-19 19:57:00,
2013-02-19 14:02:00,61.6,36.4,30.24,NE,56,5.0,11.0,39,0.00,,,0.00,Wunderground v.1.15,2013-02-19 20:02:00,
2013-02-19 14:08:00,61.5,34.3,30.24,NNE,33,6.0,7.0,36,0.00,,,0.00,Wunderground v.1.15,2013-02-19 20:08:00,
2013-02-19 14:13:00,61.6,35.1,30.24,ENE,58,5.0,8.0,37,0.00,,,0.00,Wunderground v.1.15,2013-02-19 20:13:00,
2013-02-19 14:18:00,61.7,35.8,30.24,NNE,26,4.0,7.0,38,0.00,,,0.00,Wunderground v.1.15,2013-02-19 20:18:00,
2013-02-19 14:23:00,62.0,36.1,30.24,NW,314,3.0,7.0,38,0.00,,,0.00,Wunderground v.1.15,2013-02-19 20:23:00,
2013-02-19 14:29:00,62.0,38.0,30.24,East,95,4.0,7.0,41,0.00,,,0.00,Wunderground v.1.15,2013-02-19 20:29:00,
2013-02-19 14:34:00,62.2,37.6,30.24,ENE,74,5.0,8.0,40,0.00,,,0.00,Wunderground v.1.15,2013-02-19 20:34:00,
2013-02-19 14:40:00,62.3,36.4,30.23,NNE,25,4.0,7.0,38,0.00,,,0.00,Wunderground v.1.15,2013-02-19 20:40:00,
2013-02-19 14:46:00,62.0,34.0,30.23,ENE,68,4.0,8.0,35,0.00,,,0.00,Wunderground v.1.15,2013-02-19 20:46:00,
2013-02-19 14:51:00,61.5,34.3,30.23,ENE,66,5.0,9.0,36,0.00,,,0.00,Wunderground v.1.15,2013-02-19 20:51:00,
2013-02-19 14:57:00,61.6,35.7,30.23,ENE,68,5.0,8.0,38,0.00,,,0.00,Wunderground v.1.15,2013-02-19 20:57:00,
2013-02-19 15:02:00,61.6,35.7,30.22,ENE,58,5.0,8.0,38,0.00,,,0.00,Wunderground v.1.15,2013-02-19 21:02:00,
2013-02-19 15:07:00,61.5,35.0,30.22,NE,46,5.0,7.0,37,0.00,,,0.00,Wunderground v.1.15,2013-02-19 21:07:00,
2013-02-19 15:12:00,61.0,35.8,30.22,NE,47,7.0,9.0,39,0.00,,,0.00,Wunderground v.1.15,2013-02-19 21:12:00,
2013-02-19 15:18:00,61.2,34.0,30.22,ENE,70,6.0,10.0,36,0.00,,,0.00,Wunderground v.1.15,2013-02-19 21:18:00,
2013-02-19 15:23:00,61.2,32.6,30.22,NNE,18,5.0,10.0,34,0.00,,,0.00,Wunderground v.1.15,2013-02-19 21:23:00,
2013-02-19 15:28:00,61.4,34.9,30.22,NNE,27,4.0,7.0,37,0.00,,,0.00,Wunderground v.1.15,2013-02-19 21:28:00,
2013-02-19 15:34:00,61.3,34.1,30.22,NNE,27,4.0,10.0,36,0.00,,,0.00,Wunderground v.1.15,2013-02-19 21:34:00,
2013-02-19 15:39:00,61.2,34.0,30.22,ENE,70,4.0,9.0,36,0.00,,,0.00,Wunderground v.1.15,2013-02-19 21:39:00,
2013-02-19 15:45:00,61.1,34.6,30.22,NE,35,4.0,9.0,37,0.00,,,0.00,Wunderground v.1.15,2013-02-19 21:45:00,
2013-02-19 15:50:00,61.4,33.5,30.21,NE,43,3.0,7.0,35,0.00,,,0.00,Wunderground v.1.15,2013-02-19 21:50:00,
2013-02-19 15:55:00,61.4,33.5,30.21,North,350,3.0,7.0,35,0.00,,,0.00,Wunderground v.1.15,2013-02-19 21:55:00,
2013-02-19 16:00:00,61.1,33.9,30.22,NE,41,3.0,7.0,36,0.00,,,0.00,Wunderground v.1.15,2013-02-19 22:00:00,
2013-02-19 16:05:00,60.8,33.7,30.22,NE,40,4.0,7.0,36,0.00,,,0.00,Wunderground v.1.15,2013-02-19 22:05:00,
2013-02-19 16:10:00,60.5,34.7,30.22,North,11,4.0,7.0,38,0.00,,,0.00,Wunderground v.1.15,2013-02-19 22:10:00,
2013-02-19 16:15:00,60.5,34.1,30.22,East,81,4.0,7.0,37,0.00,,,0.00,Wunderground v.1.15,2013-02-19 22:15:00,
2013-02-19 16:21:00,60.3,33.9,30.22,ENE,64,5.0,9.0,37,0.00,,,0.00,Wunderground v.1.15,2013-02-19 22:21:00,
2013-02-19 16:26:00,60.0,33.6,30.22,SSE,148,5.0,5.0,37,0.00,,,0.00,Wunderground v.1.15,2013-02-19 22:26:00,
2013-02-19 16:31:00,60.1,34.4,30.22,NNE,27,3.0,7.0,38,0.00,,,0.00,Wunderground v.1.15,2013-02-19 22:31:00,
2013-02-19 16:37:00,60.2,33.8,30.22,NE,43,2.0,7.0,37,0.00,,,0.00,Wunderground v.1.15,2013-02-19 22:37:00,
2013-02-19 16:42:00,60.0,33.6,30.21,NNE,23,3.0,7.0,37,0.00,,,0.00,Wunderground v.1.15,2013-02-19 22:42:00,
2013-02-19 16:47:00,59.6,32.6,30.22,ENE,61,5.0,8.0,36,0.00,,,0.00,Wunderground v.1.15,2013-02-19 22:47:00,
2013-02-19 16:53:00,59.4,32.4,30.22,East,91,6.0,8.0,36,0.00,,,0.00,Wunderground v.1.15,2013-02-19 22:53:00,
2013-02-19 16:58:00,59.4,33.8,30.22,NE,39,4.0,7.0,38,0.00,,,0.00,Wunderground v.1.15,2013-02-19 22:58:00,
2013-02-19 17:03:00,59.2,33.6,30.22,NE,56,3.0,7.0,38,0.00,,,0.00,Wunderground v.1.15,2013-02-19 23:03:00,
2013-02-19 17:09:00,59.1,33.5,30.21,NE,51,3.0,8.0,38,0.00,,,0.00,Wunderground v.1.15,2013-02-19 23:09:00,
2013-02-19 17:14:00,58.9,34.6,30.21,NNE,13,3.0,8.0,40,0.00,,,0.00,Wunderground v.1.15,2013-02-19 23:14:00,
2013-02-19 17:20:00,58.6,34.3,30.22,North,356,2.0,7.0,40,0.00,,,0.00,Wunderground v.1.15,2013-02-19 23:20:00,
2013-02-19 17:25:00,58.2,34.6,30.21,NE,51,1.0,7.0,41,0.00,,,0.00,Wunderground v.1.15,2013-02-19 23:25:00,
2013-02-19 17:30:00,57.9,34.3,30.22,NNW,343,1.0,7.0,41,0.00,,,0.00,Wunderground v.1.15,2013-02-19 23:30:00,
2013-02-19 17:35:00,57.6,34.7,30.22,NE,39,1.0,7.0,42,0.00,,,0.00,Wunderground v.1.15,2013-02-19 23:35:00,
2013-02-19 17:41:00,57.4,35.1,30.22,NE,54,1.0,7.0,43,0.00,,,0.00,Wunderground v.1.15,2013-02-19 23:41:00,
2013-02-19 17:46:00,57.4,35.6,30.22,ENE,69,3.0,7.0,44,0.00,,,0.00,Wunderground v.1.15,2013-02-19 23:46:00,
2013-02-19 17:51:00,57.1,36.5,30.21,NE,47,4.0,7.0,46,0.00,,,0.00,Wunderground v.1.15,2013-02-19 23:51:00,
2013-02-19 17:56:00,56.7,36.7,30.22,ENE,67,3.0,7.0,47,0.00,,,0.00,Wunderground v.1.15,2013-02-19 23:56:00,
2013-02-19 18:02:00,56.4,36.9,30.22,ENE,67,4.0,7.0,48,0.00,,,0.00,Wunderground v.1.15,2013-02-20 00:02:00,
2013-02-19 18:07:00,56.1,36.7,30.22,ENE,69,5.0,7.0,48,0.00,,,0.00,Wunderground v.1.15,2013-02-20 00:07:00,
2013-02-19 18:12:00,55.9,37.0,30.22,NE,56,5.0,7.0,49,0.00,,,0.00,Wunderground v.1.15,2013-02-20 00:12:00,
2013-02-19 18:18:00,55.5,36.6,30.22,ENE,67,4.0,7.0,49,0.00,,,0.00,Wunderground v.1.15,2013-02-20 00:18:00,
2013-02-19 18:23:00,55.3,37.0,30.22,ENE,72,4.0,7.0,50,0.00,,,0.00,Wunderground v.1.15,2013-02-20 00:23:00,
2013-02-19 18:28:00,55.0,37.2,30.22,ENE,69,3.0,7.0,51,0.00,,,0.00,Wunderground v.1.15,2013-02-20 00:28:00,
2013-02-19 18:33:00,54.7,36.9,30.22,NE,48,3.0,7.0,51,0.00,,,0.00,Wunderground v.1.15,2013-02-20 00:33:00,
2013-02-19 18:39:00,54.3,37.0,30.22,ENE,64,2.0,7.0,52,0.00,,,0.00,Wunderground v.1.15,2013-02-20 00:39:00,
2013-02-19 18:45:00,54.1,36.4,30.22,NE,47,2.0,7.0,51,0.00,,,0.00,Wunderground v.1.15,2013-02-20 00:45:00,
2013-02-19 18:51:00,54.0,36.3,30.22,NE,56,3.0,7.0,51,0.00,,,0.00,Wunderground v.1.15,2013-02-20 00:51:00,
2013-02-19 18:57:00,53.9,35.7,30.22,ENE,64,2.0,7.0,50,0.00,,,0.00,Wunderground v.1.15,2013-02-20 00:57:00,
2013-02-19 19:02:00,53.6,35.9,30.22,NE,56,3.0,7.0,51,0.00,,,0.00,Wunderground v.1.15,2013-02-20 01:02:00,
2013-02-19 19:07:00,53.4,36.2,30.22,ENE,68,3.0,7.0,52,0.00,,,0.00,Wunderground v.1.15,2013-02-20 01:07:00,
2013-02-19 19:13:00,53.1,35.4,30.22,NE,56,2.0,7.0,51,0.00,,,0.00,Wunderground v.1.15,2013-02-20 01:13:00,
2013-02-19 19:19:00,52.9,35.7,30.22,NE,47,2.0,7.0,52,0.00,,,0.00,Wunderground v.1.15,2013-02-20 01:19:00,
2013-02-19 19:25:00,52.7,36.0,30.22,NE,36,2.0,7.0,53,0.00,,,0.00,Wunderground v.1.15,2013-02-20 01:25:00,
2013-02-19 19:30:00,52.5,35.4,30.23,NE,48,2.0,7.0,52,0.00,,,0.00,Wunderground v.1.15,2013-02-20 01:30:00,
2013-02-19 19:36:00,52.1,35.5,30.23,ENE,72,2.0,7.0,53,0.00,,,0.00,Wunderground v.1.15,2013-02-20 01:36:00,
2013-02-19 19:41:00,52.0,35.9,30.23,East,85,2.0,7.0,54,0.00,,,0.00,Wunderground v.1.15,2013-02-20 01:41:00,
2013-02-19 19:46:00,51.8,36.1,30.23,ENE,64,2.0,2.0,55,0.00,,,0.00,Wunderground v.1.15,2013-02-20 01:46:00,
2013-02-19 19:51:00,51.4,35.8,30.24,ENE,70,1.0,7.0,55,0.00,,,0.00,Wunderground v.1.15,2013-02-20 01:51:00,
2013-02-19 19:57:00,51.2,36.0,30.24,East,89,1.0,7.0,56,0.00,,,0.00,Wunderground v.1.15,2013-02-20 01:57:00,
2013-02-19 20:02:00,50.9,36.2,30.24,ENE,77,2.0,7.0,57,0.00,,,0.00,Wunderground v.1.15,2013-02-20 02:02:00,
2013-02-19 20:07:00,50.7,36.0,30.24,ENE,77,1.0,7.0,57,0.00,,,0.00,Wunderground v.1.15,2013-02-20 02:07:00,
2013-02-19 20:13:00,50.4,35.7,30.25,East,84,1.0,7.0,57,0.00,,,0.00,Wunderground v.1.15,2013-02-20 02:13:00,
2013-02-19 20:18:00,50.3,36.1,30.24,East,79,1.0,7.0,58,0.00,,,0.00,Wunderground v.1.15,2013-02-20 02:18:00,
2013-02-19 20:23:00,50.0,35.8,30.24,East,90,1.0,7.0,58,0.00,,,0.00,Wunderground v.1.15,2013-02-20 02:23:00,
2013-02-19 20:28:00,49.7,35.5,30.24,East,84,1.0,7.0,58,0.00,,,0.00,Wunderground v.1.15,2013-02-20 02:28:00,
2013-02-19 20:34:00,49.6,35.8,30.23,ESE,103,2.0,7.0,59,0.00,,,0.00,Wunderground v.1.15,2013-02-20 02:34:00,
2013-02-19 20:40:00,49.4,35.7,30.24,ESE,123,2.0,7.0,59,0.00,,,0.00,Wunderground v.1.15,2013-02-20 02:40:00,
2013-02-19 20:45:00,49.3,35.6,30.23,ESE,105,1.0,7.0,59,0.00,,,0.00,Wunderground v.1.15,2013-02-20 02:45:00,
2013-02-19 20:50:00,49.1,35.8,30.23,East,99,1.0,7.0,60,0.00,,,0.00,Wunderground v.1.15,2013-02-20 02:50:00,
2013-02-19 20:55:00,48.8,35.9,30.23,East,98,1.0,7.0,61,0.00,,,0.00,Wunderground v.1.15,2013-02-20 02:55:00,
2013-02-19 21:01:00,48.5,35.7,30.24,East,98,0.0,7.0,61,0.00,,,0.00,Wunderground v.1.15,2013-02-20 03:01:00,
2013-02-19 21:07:00,47.9,35.9,30.24,East,98,0.0,7.0,63,0.00,,,0.00,Wunderground v.1.15,2013-02-20 03:07:00,
2013-02-19 21:12:00,47.7,36.1,30.25,East,98,0.0,7.0,64,0.00,,,0.00,Wunderground v.1.15,2013-02-20 03:12:00,
2013-02-19 21:18:00,47.3,36.5,30.25,East,98,0.0,7.0,66,0.00,,,0.00,Wunderground v.1.15,2013-02-20 03:18:00,
2013-02-19 21:23:00,47.0,35.8,30.26,East,99,0.0,7.0,65,0.00,,,0.00,Wunderground v.1.15,2013-02-20 03:23:00,
2013-02-19 21:28:00,46.8,36.0,30.27,East,98,0.0,7.0,66,0.00,,,0.00,Wunderground v.1.15,2013-02-20 03:28:00,
2013-02-19 21:33:00,46.7,36.3,30.27,East,99,0.0,7.0,67,0.00,,,0.00,Wunderground v.1.15,2013-02-20 03:33:00,
2013-02-19 21:38:00,46.4,36.8,30.27,East,98,0.0,7.0,69,0.00,,,0.00,Wunderground v.1.15,2013-02-20 03:38:00,
2013-02-19 21:44:00,46.0,36.8,30.27,ESE,108,0.0,7.0,70,0.00,,,0.00,Wunderground v.1.15,2013-02-20 03:44:00,
2013-02-19 21:50:00,45.7,37.5,30.26,East,101,1.0,7.0,73,0.00,,,0.00,Wunderground v.1.15,2013-02-20 03:50:00,
2013-02-19 21:55:00,45.6,38.5,30.25,East,101,1.0,7.0,76,0.00,,,0.00,Wunderground v.1.15,2013-02-20 03:55:00,
2013-02-19 22:00:00,45.5,38.0,30.25,East,84,1.0,7.0,75,0.00,,,0.00,Wunderground v.1.15,2013-02-20 04:00:00,
2013-02-19 22:05:00,45.7,37.5,30.25,East,86,1.0,7.0,73,0.00,,,0.00,Wunderground v.1.15,2013-02-20 04:05:00,
2013-02-19 22:10:00,46.2,37.3,30.25,ESE,110,1.0,7.0,71,0.00,,,0.00,Wunderground v.1.15,2013-02-20 04:10:00,
2013-02-19 22:16:00,46.8,36.8,30.25,ESE,110,1.0,7.0,68,0.00,,,0.00,Wunderground v.1.15,2013-02-20 04:16:00,
2013-02-19 22:21:00,47.3,36.9,30.26,ESE,110,1.0,7.0,67,0.00,,,0.00,Wunderground v.1.15,2013-02-20 04:21:00,
2013-02-19 22:26:00,47.5,37.1,30.25,ENE,69,1.0,7.0,67,0.00,,,0.00,Wunderground v.1.15,2013-02-20 04:26:00,
2013-02-19 22:32:00,47.7,36.9,30.25,ENE,72,2.0,7.0,66,0.00,,,0.00,Wunderground v.1.15,2013-02-20 04:32:00,
2013-02-19 22:37:00,47.8,37.4,30.25,ENE,71,1.0,7.0,67,0.00,,,0.00,Wunderground v.1.15,2013-02-20 04:37:00,
2013-02-19 22:42:00,47.8,37.4,30.25,East,79,1.0,7.0,67,0.00,,,0.00,Wunderground v.1.15,2013-02-20 04:42:00,
2013-02-19 22:48:00,47.9,37.5,30.26,East,79,1.0,7.0,67,0.00,,,0.00,Wunderground v.1.15,2013-02-20 04:48:00,
2013-02-19 22:53:00,47.9,37.1,30.26,East,93,0.0,7.0,66,0.00,,,0.00,Wunderground v.1.15,2013-02-20 04:53:00,
2013-02-19 22:58:00,47.9,37.1,30.25,East,82,1.0,7.0,66,0.00,,,0.00,Wunderground v.1.15,2013-02-20 04:58:00,
2013-02-19 23:00:00,47.9,37.1,30.25,ENE,72,1.0,7.0,66,0.00,,,0.00,Wunderground v.1.15,2013-02-20 05:00:00,
2013-02-19 23:01:00,47.9,37.1,30.25,ENE,74,1.0,7.0,66,0.00,,,0.00,Wunderground v.1.15,2013-02-20 05:01:00,
2013-02-19 23:02:00,48.0,37.2,30.25,ENE,75,2.0,7.0,66,0.00,,,0.00,Wunderground v.1.15,2013-02-20 05:02:00,
2013-02-19 23:03:00,48.0,37.2,30.25,ENE,75,2.0,7.0,66,0.00,,,0.00,Wunderground v.1.15,2013-02-20 05:03:00,
2013-02-19 23:08:00,48.0,37.6,30.26,ENE,68,2.0,7.0,67,0.00,,,0.00,Wunderground v.1.15,2013-02-20 05:08:00,
2013-02-19 23:13:00,47.9,37.1,30.25,ENE,74,1.0,7.0,66,0.00,,,0.00,Wunderground v.1.15,2013-02-20 05:13:00,
2013-02-19 23:18:00,47.9,37.5,30.25,ENE,78,2.0,7.0,67,0.00,,,0.00,Wunderground v.1.15,2013-02-20 05:18:00,
2013-02-19 23:24:00,47.9,37.5,30.25,ENE,64,2.0,7.0,67,0.00,,,0.00,Wunderground v.1.15,2013-02-20 05:24:00,
2013-02-19 23:29:00,48.0,37.6,30.25,ENE,70,2.0,7.0,67,0.00,,,0.00,Wunderground v.1.15,2013-02-20 05:29:00,
2013-02-19 23:35:00,48.2,37.8,30.25,ENE,77,3.0,7.0,67,0.00,,,0.00,Wunderground v.1.15,2013-02-20 05:35:00,
2013-02-19 23:40:00,48.1,37.7,30.25,ENE,71,3.0,7.0,67,0.00,,,0.00,Wunderground v.1.15,2013-02-20 05:40:00,
2013-02-19 23:45:00,48.1,37.7,30.24,ENE,65,3.0,7.0,67,0.00,,,0.00,Wunderground v.1.15,2013-02-20 05:45:00,
2013-02-19 23:50:00,48.1,37.7,30.24,ENE,68,3.0,7.0,67,0.00,,,0.00,Wunderground v.1.15,2013-02-20 05:50:00,
2013-02-19 23:56:00,48.2,37.0,30.25,ENE,72,3.0,7.0,65,0.00,,,0.00,Wunderground v.1.15,2013-02-20 05:56:00,